BEL1KZ EBBR-LDZD

Flight info

Callsign BEL1KZ
Flight time 1h 32m
Altitude 37000
Route PITES DCT EDISA DCT UTABA DCT XEBIX DCT GEMKA DCT KUDUL
Aircraft A319/M-SDE3FGHIRWY/LB1

Departure

Time 2026-05-03 22:12
Airport Brussels Airport (EBBR)

Arrival

Time 2026-05-03 23:44
Airport Zadar Airport (LDZD)
Time Latitude Longitude Altitude Speed Heading
2026-05-03 21:57 50.90306 4.48263 118 ft 0 kts 155°
2026-05-03 22:05 50.90307 4.48262 121 ft 2 kts 155°
2026-05-03 22:05 50.90320 4.48253 116 ft 3 kts 153°
2026-05-03 22:05 50.90339 4.48235 116 ft 3 kts 136°
2026-05-03 22:05 50.90349 4.48209 116 ft 3 kts 73°
2026-05-03 22:06 50.90348 4.48203 117 ft 0 kts 65°
2026-05-03 22:08 50.90358 4.48224 121 ft 4 kts 45°
2026-05-03 22:08 50.90399 4.48249 121 ft 8 kts 24°
2026-05-03 22:08 50.90433 4.48339 117 ft 12 kts 65°
2026-05-03 22:08 50.90472 4.48476 119 ft 16 kts 65°
2026-05-03 22:09 50.90541 4.48600 121 ft 16 kts
2026-05-03 22:09 50.90607 4.48669 119 ft 12 kts 66°
2026-05-03 22:09 50.90645 4.48805 120 ft 14 kts 65°
2026-05-03 22:10 50.90741 4.49137 119 ft 18 kts 65°
2026-05-03 22:10 50.90792 4.49312 120 ft 17 kts 64°
2026-05-03 22:10 50.90842 4.49484 121 ft 17 kts 66°
2026-05-03 22:10 50.90890 4.49656 120 ft 17 kts 64°
2026-05-03 22:11 50.90951 4.49824 123 ft 18 kts 45°
2026-05-03 22:11 50.91050 4.49921 117 ft 12 kts 24°
2026-05-03 22:11 50.91127 4.49933 118 ft 12 kts 325°
2026-05-03 22:11 50.91114 4.49799 118 ft 20 kts 246°
2026-05-03 22:12 50.90947 4.49221 118 ft 95 kts 245°
2026-05-03 22:12 50.90580 4.47950 121 ft 156 kts 245°
2026-05-03 22:12 50.90112 4.46344 712 ft 156 kts 244°
2026-05-03 22:12 50.89678 4.44791 1516 ft 151 kts 244°
2026-05-03 22:13 50.89197 4.43346 2228 ft 149 kts 225°
2026-05-03 22:13 50.88263 4.42662 2830 ft 153 kts 190°
2026-05-03 22:13 50.87196 4.42770 3421 ft 162 kts 167°
2026-05-03 22:13 50.86205 4.43855 3716 ft 190 kts 136°
2026-05-03 22:14 50.85293 4.45499 3996 ft 213 kts 135°
2026-05-03 22:14 50.84253 4.47376 4301 ft 239 kts 135°
2026-05-03 22:14 50.83101 4.49456 4780 ft 262 kts 134°
2026-05-03 22:14 50.81882 4.51661 5590 ft 270 kts 134°
2026-05-03 22:15 50.80643 4.53912 6529 ft 273 kts 135°
2026-05-03 22:15 50.79386 4.56188 7433 ft 276 kts 135°
2026-05-03 22:15 50.78112 4.58483 8333 ft 280 kts 135°
2026-05-03 22:15 50.76814 4.60812 9226 ft 284 kts 135°
2026-05-03 22:16 50.75496 4.63171 10088 ft 288 kts 135°
2026-05-03 22:16 50.74120 4.65625 10471 ft 310 kts 135°
2026-05-03 22:16 50.72634 4.68275 10734 ft 334 kts 134°
2026-05-03 22:16 50.71062 4.71093 11190 ft 348 kts 134°
2026-05-03 22:17 50.69655 4.74267 11881 ft 358 kts 122°
2026-05-03 22:17 50.68670 4.77910 12612 ft 366 kts 110°
2026-05-03 22:17 50.67981 4.81799 13350 ft 370 kts 108°
2026-05-03 22:17 50.67278 4.85731 14041 ft 374 kts 109°
2026-05-03 22:18 50.66345 4.89562 14675 ft 375 kts 120°
2026-05-03 22:18 50.64967 4.93048 15325 ft 375 kts 130°
2026-05-03 22:18 50.63219 4.96086 15979 ft 375 kts 139°
2026-05-03 22:18 50.61348 4.98970 16635 ft 378 kts 139°
2026-05-03 22:19 50.59459 5.01886 17293 ft 382 kts 139°
2026-05-03 22:19 50.57557 5.04824 17945 ft 385 kts 139°
2026-05-03 22:19 50.55641 5.07788 18553 ft 388 kts 139°
2026-05-03 22:19 50.53711 5.10778 19118 ft 391 kts 139°
2026-05-03 22:20 50.51765 5.13788 19678 ft 394 kts 139°
2026-05-03 22:20 50.49799 5.16822 20248 ft 397 kts 139°
2026-05-03 22:20 50.47818 5.19868 20792 ft 400 kts 139°
2026-05-03 22:20 50.45818 5.22937 21317 ft 404 kts 139°
2026-05-03 22:21 50.43799 5.26030 21839 ft 407 kts 140°
2026-05-03 22:21 50.41766 5.29146 22341 ft 410 kts 140°
2026-05-03 22:21 50.39718 5.32283 22845 ft 413 kts 140°
2026-05-03 22:21 50.37654 5.35438 23334 ft 416 kts 140°
2026-05-03 22:22 50.35596 5.38582 23766 ft 419 kts 140°
2026-05-03 22:22 50.33500 5.41790 24169 ft 422 kts 140°
2026-05-03 22:22 50.31393 5.45004 24565 ft 424 kts 140°
2026-05-03 22:22 50.29270 5.48234 24954 ft 427 kts 140°
2026-05-03 22:23 50.27131 5.51480 25356 ft 429 kts 140°
2026-05-03 22:23 50.24984 5.54735 25754 ft 432 kts 140°
2026-05-03 22:23 50.22822 5.58015 26154 ft 434 kts 140°
2026-05-03 22:23 50.20643 5.61319 26538 ft 437 kts 141°
2026-05-03 22:24 50.18459 5.64628 26916 ft 439 kts 141°
2026-05-03 22:24 50.16256 5.67959 27291 ft 441 kts 141°
2026-05-03 22:24 50.14045 5.71293 27653 ft 444 kts 141°
2026-05-03 22:24 50.11817 5.74636 28007 ft 446 kts 141°
2026-05-03 22:25 50.09602 5.77951 28334 ft 448 kts 141°
2026-05-03 22:25 50.07351 5.81321 28660 ft 451 kts 141°
2026-05-03 22:25 50.05084 5.84717 28988 ft 453 kts 141°
2026-05-03 22:25 50.02811 5.88127 29310 ft 456 kts 141°
2026-05-03 22:26 50.00517 5.91561 29631 ft 458 kts 141°
2026-05-03 22:26 49.98215 5.95003 29924 ft 460 kts 141°
2026-05-03 22:26 49.95904 5.98455 30271 ft 461 kts 141°
2026-05-03 22:26 49.93598 6.01895 30638 ft 460 kts 141°
2026-05-03 22:27 49.91289 6.05333 30993 ft 459 kts 141°
2026-05-03 22:27 49.88983 6.08753 31355 ft 459 kts 141°
2026-05-03 22:27 49.86787 6.12368 31723 ft 463 kts 133°
2026-05-03 22:27 49.84951 6.16485 32087 ft 467 kts 124°
2026-05-03 22:28 49.83420 6.20957 32466 ft 469 kts 121°
2026-05-03 22:28 49.81915 6.25422 32843 ft 468 kts 121°
2026-05-03 22:28 49.80404 6.29882 33232 ft 467 kts 121°
2026-05-03 22:28 49.78891 6.34332 33619 ft 466 kts 121°
2026-05-03 22:29 49.77379 6.38766 34008 ft 465 kts 121°
2026-05-03 22:29 49.75867 6.43187 34340 ft 465 kts 121°
2026-05-03 22:29 49.74355 6.47595 34696 ft 464 kts 121°
2026-05-03 22:29 49.72839 6.51988 35048 ft 462 kts 122°
2026-05-03 22:30 49.71255 6.56303 35390 ft 460 kts 124°
2026-05-03 22:30 49.69597 6.60525 35704 ft 459 kts 126°
2026-05-03 22:30 49.67915 6.64632 36015 ft 458 kts 126°
2026-05-03 22:30 49.66173 6.68819 36317 ft 457 kts 126°
2026-05-03 22:31 49.64457 6.72951 36602 ft 457 kts 126°
2026-05-03 22:31 49.62754 6.77086 36880 ft 457 kts 126°
2026-05-03 22:31 49.61068 6.81236 36983 ft 457 kts 125°
2026-05-03 22:32 49.57742 6.89505 37000 ft 457 kts 125°
2026-05-03 22:32 49.54390 6.97810 37003 ft 456 kts 125°
2026-05-03 22:33 49.51028 7.06096 37012 ft 456 kts 125°
2026-05-03 22:33 49.47654 7.14370 37018 ft 456 kts 125°
2026-05-03 22:34 49.44270 7.22625 37015 ft 456 kts 126°
2026-05-03 22:34 49.40881 7.30874 37002 ft 456 kts 125°
2026-05-03 22:35 49.37492 7.39108 37000 ft 456 kts 125°
2026-05-03 22:35 49.34103 7.47321 36996 ft 456 kts 125°
2026-05-03 22:36 49.30703 7.55533 36999 ft 456 kts 126°
2026-05-03 22:36 49.27323 7.63668 36997 ft 455 kts 126°
2026-05-03 22:37 49.23916 7.71832 37001 ft 455 kts 126°
2026-05-03 22:37 49.20497 7.79989 37004 ft 455 kts 126°
2026-05-03 22:38 49.17080 7.88124 37006 ft 455 kts 126°
2026-05-03 22:38 49.13662 7.96248 37010 ft 454 kts 125°
2026-05-03 22:39 49.10239 8.04354 37013 ft 454 kts 125°
2026-05-03 22:39 49.06815 8.12456 37024 ft 454 kts 125°
2026-05-03 22:40 49.03384 8.20531 37025 ft 454 kts 126°
2026-05-03 22:40 48.99948 8.28592 37021 ft 453 kts 126°
2026-05-03 22:41 48.95899 8.35861 37031 ft 449 kts 136°
2026-05-03 22:41 48.91613 8.42703 37016 ft 449 kts 136°
2026-05-03 22:42 48.87306 8.49591 37022 ft 449 kts 136°
2026-05-03 22:42 48.82990 8.56451 37023 ft 449 kts 136°
2026-05-03 22:43 48.78666 8.63310 37033 ft 450 kts 136°
2026-05-03 22:43 48.74340 8.70156 37031 ft 450 kts 136°
2026-05-03 22:44 48.70009 8.76992 37037 ft 450 kts 136°
2026-05-03 22:44 48.65670 8.83819 37038 ft 450 kts 136°
2026-05-03 22:45 48.61322 8.90635 37043 ft 450 kts 136°
2026-05-03 22:45 48.56973 8.97441 37045 ft 450 kts 136°
2026-05-03 22:46 48.52616 9.04237 37046 ft 450 kts 136°
2026-05-03 22:46 48.48251 9.11039 37045 ft 451 kts 135°
2026-05-03 22:47 48.43914 9.17772 37046 ft 451 kts 135°
2026-05-03 22:47 48.39537 9.24538 37047 ft 451 kts 135°
2026-05-03 22:48 48.35153 9.31298 37051 ft 451 kts 135°
2026-05-03 22:48 48.30771 9.38048 37053 ft 452 kts 135°
2026-05-03 22:49 48.26379 9.44801 37052 ft 452 kts 135°
2026-05-03 22:49 48.21604 9.50904 37051 ft 451 kts 142°
2026-05-03 22:50 48.16718 9.56821 37049 ft 451 kts 142°
2026-05-03 22:50 48.11830 9.62742 37051 ft 452 kts 142°
2026-05-03 22:51 48.06939 9.68653 37051 ft 452 kts 142°
2026-05-03 22:51 48.02386 9.74131 37052 ft 452 kts 142°
2026-05-03 22:52 47.97476 9.80024 37049 ft 453 kts 142°
2026-05-03 22:52 47.92594 9.85870 37059 ft 453 kts 142°
2026-05-03 22:53 47.87678 9.91750 37058 ft 454 kts 142°
2026-05-03 22:53 47.82753 9.97642 37060 ft 454 kts 142°
2026-05-03 22:54 47.77818 10.03517 37059 ft 455 kts 142°
2026-05-03 22:54 47.72872 10.09376 37064 ft 455 kts 142°
2026-05-03 22:55 47.68718 10.14283 37064 ft 456 kts 142°
2026-05-03 22:55 47.63779 10.20103 37068 ft 456 kts 142°
2026-05-03 22:56 47.58807 10.25960 37071 ft 457 kts 142°
2026-05-03 22:56 47.53826 10.31817 37074 ft 457 kts 142°
2026-05-03 22:57 47.48841 10.37665 37076 ft 458 kts 142°
2026-05-03 22:57 47.43839 10.43515 37076 ft 458 kts 142°
2026-05-03 22:58 47.39157 10.49868 37077 ft 458 kts 128°
2026-05-03 22:58 47.35418 10.57482 37081 ft 458 kts 125°
2026-05-03 22:59 47.31699 10.65121 37083 ft 458 kts 125°
2026-05-03 22:59 47.27970 10.72740 37084 ft 459 kts 125°
2026-05-03 23:00 47.24235 10.80360 37091 ft 459 kts 125°
2026-05-03 23:00 47.20500 10.87974 37091 ft 459 kts 125°
2026-05-03 23:01 47.16754 10.95577 37092 ft 459 kts 125°
2026-05-03 23:01 47.13000 11.03186 37085 ft 459 kts 125°
2026-05-03 23:02 47.09274 11.10732 37084 ft 460 kts 125°
2026-05-03 23:02 47.05514 11.18313 37078 ft 459 kts 125°
2026-05-03 23:03 47.01749 11.25881 37089 ft 460 kts 125°
2026-05-03 23:03 46.97969 11.33458 37104 ft 460 kts 125°
2026-05-03 23:04 46.94186 11.41018 37115 ft 460 kts 125°
2026-05-03 23:04 46.90400 11.48564 37126 ft 460 kts 125°
2026-05-03 23:05 46.86616 11.56093 37122 ft 460 kts 125°
2026-05-03 23:05 46.82828 11.63612 37123 ft 460 kts 125°
2026-05-03 23:06 46.79033 11.71133 37127 ft 460 kts 125°
2026-05-03 23:06 46.75228 11.78643 37144 ft 461 kts 126°
2026-05-03 23:07 46.71400 11.86167 37166 ft 461 kts 126°
2026-05-03 23:07 46.67576 11.93665 37184 ft 461 kts 126°
2026-05-03 23:08 46.63742 12.01159 37193 ft 462 kts 126°
2026-05-03 23:08 46.59928 12.08598 37196 ft 461 kts 126°
2026-05-03 23:09 46.56088 12.16076 37192 ft 461 kts 126°
2026-05-03 23:09 46.52242 12.23541 37187 ft 462 kts 126°
2026-05-03 23:10 46.48386 12.31007 37174 ft 462 kts 126°
2026-05-03 23:10 46.44528 12.38456 37156 ft 462 kts 126°
2026-05-03 23:11 46.40662 12.45906 37137 ft 462 kts 126°
2026-05-03 23:11 46.36784 12.53348 37138 ft 463 kts 126°
2026-05-03 23:12 46.32899 12.60773 37135 ft 463 kts 126°
2026-05-03 23:12 46.29010 12.68201 37135 ft 463 kts 126°
2026-05-03 23:13 46.25117 12.75631 37124 ft 463 kts 126°
2026-05-03 23:13 46.21227 12.83043 37118 ft 463 kts 126°
2026-05-03 23:14 46.17317 12.90440 37115 ft 463 kts 126°
2026-05-03 23:14 46.13409 12.97827 37113 ft 464 kts 126°
2026-05-03 23:15 46.09494 13.05213 37115 ft 464 kts 126°
2026-05-03 23:15 46.05569 13.12594 37119 ft 464 kts 126°
2026-05-03 23:16 46.01637 13.19975 37117 ft 464 kts 126°
2026-05-03 23:16 45.97721 13.27291 37116 ft 465 kts 126°
2026-05-03 23:17 45.93769 13.34651 37119 ft 465 kts 126°
2026-05-03 23:17 45.89817 13.41996 37123 ft 465 kts 126°
2026-05-03 23:18 45.85861 13.49340 37120 ft 465 kts 126°
2026-05-03 23:18 45.81907 13.56678 37123 ft 465 kts 126°
2026-05-03 23:19 45.77947 13.63997 37121 ft 464 kts 126°
2026-05-03 23:19 45.73977 13.71295 37121 ft 464 kts 126°
2026-05-03 23:20 45.70004 13.78583 37120 ft 464 kts 126°
2026-05-03 23:20 45.66027 13.85866 37123 ft 465 kts 126°
2026-05-03 23:21 45.62039 13.93147 37131 ft 465 kts 126°
2026-05-03 23:21 45.58049 14.00420 37134 ft 465 kts 126°
2026-05-03 23:22 45.52057 14.11316 37139 ft 465 kts 126°
2026-05-03 23:22 45.47451 14.17796 37133 ft 468 kts 144°
2026-05-03 23:23 45.41611 14.21843 37120 ft 469 kts 164°
2026-05-03 23:23 45.35236 14.23796 37108 ft 469 kts 169°
2026-05-03 23:24 45.28839 14.25654 37096 ft 470 kts 168°
2026-05-03 23:24 45.22429 14.27515 37098 ft 470 kts 168°
2026-05-03 23:25 45.16011 14.29361 37099 ft 471 kts 169°
2026-05-03 23:25 45.09624 14.31184 37102 ft 471 kts 169°
2026-05-03 23:26 45.03144 14.33027 36926 ft 472 kts 169°
2026-05-03 23:26 44.99924 14.33938 36666 ft 472 kts 169°
2026-05-03 23:26 44.96738 14.34844 36404 ft 473 kts 169°
2026-05-03 23:27 44.93515 14.35764 36142 ft 473 kts 169°
2026-05-03 23:27 44.90276 14.36691 35309 ft 478 kts 169°
2026-05-03 23:27 44.86990 14.37631 34396 ft 484 kts 169°
2026-05-03 23:27 44.83679 14.38572 33317 ft 489 kts 169°
2026-05-03 23:28 44.80322 14.39523 32268 ft 494 kts 169°
2026-05-03 23:28 44.76955 14.40476 31222 ft 497 kts 169°
2026-05-03 23:28 44.73571 14.41431 30404 ft 494 kts 169°
2026-05-03 23:28 44.70200 14.42377 29295 ft 495 kts 169°
2026-05-03 23:29 44.66811 14.43326 28225 ft 495 kts 169°
2026-05-03 23:29 44.63447 14.44269 27266 ft 492 kts 169°
2026-05-03 23:29 44.60097 14.45212 26345 ft 488 kts 168°
2026-05-03 23:29 44.56790 14.46184 25523 ft 482 kts 165°
2026-05-03 23:30 44.53645 14.47703 24748 ft 475 kts 155°
2026-05-03 23:30 44.50764 14.49896 23991 ft 468 kts 146°
2026-05-03 23:30 44.48204 14.52659 23188 ft 462 kts 138°
2026-05-03 23:30 44.45773 14.55572 22408 ft 456 kts 138°
2026-05-03 23:31 44.43372 14.58441 21635 ft 451 kts 138°
2026-05-03 23:31 44.41004 14.61257 21024 ft 443 kts 138°
2026-05-03 23:31 44.38673 14.64018 20446 ft 436 kts 138°
2026-05-03 23:31 44.36376 14.66733 19882 ft 429 kts 138°
2026-05-03 23:32 44.34141 14.69448 19264 ft 424 kts 134°
2026-05-03 23:32 44.32197 14.72444 18734 ft 418 kts 129°
2026-05-03 23:32 44.30307 14.75489 18194 ft 413 kts 129°
2026-05-03 23:32 44.28430 14.78498 17663 ft 409 kts 129°
2026-05-03 23:33 44.26566 14.81475 17143 ft 404 kts 129°
2026-05-03 23:33 44.24723 14.84419 16624 ft 400 kts 129°
2026-05-03 23:33 44.22901 14.87328 16089 ft 396 kts 129°
2026-05-03 23:33 44.21091 14.90207 15560 ft 393 kts 129°
2026-05-03 23:34 44.19292 14.93068 15016 ft 390 kts 129°
2026-05-03 23:34 44.17511 14.95902 14459 ft 388 kts 129°
2026-05-03 23:34 44.15739 14.98722 13897 ft 385 kts 129°
2026-05-03 23:34 44.13980 15.01517 13267 ft 383 kts 130°
2026-05-03 23:35 44.12231 15.04288 12692 ft 379 kts 130°
2026-05-03 23:35 44.10502 15.07028 12113 ft 375 kts 130°
2026-05-03 23:35 44.08790 15.09736 11524 ft 371 kts 130°
2026-05-03 23:35 44.07097 15.12412 10941 ft 367 kts 130°
2026-05-03 23:36 44.05438 15.15031 10740 ft 352 kts 130°
2026-05-03 23:36 44.03852 15.17533 10614 ft 337 kts 130°
2026-05-03 23:36 44.02335 15.19922 10493 ft 323 kts 130°
2026-05-03 23:36 44.00874 15.22219 10373 ft 311 kts 130°
2026-05-03 23:37 43.99469 15.24431 10223 ft 300 kts 130°
2026-05-03 23:37 43.98102 15.26581 10036 ft 294 kts 130°
2026-05-03 23:37 43.96753 15.28703 9842 ft 292 kts 130°
2026-05-03 23:37 43.95416 15.30807 9444 ft 290 kts 130°
2026-05-03 23:38 43.94532 15.32199 9187 ft 289 kts 130°
2026-05-03 23:38 43.93206 15.34282 8794 ft 287 kts 130°
2026-05-03 23:38 43.91889 15.36346 8330 ft 285 kts 130°
2026-05-03 23:38 43.90609 15.38421 7851 ft 282 kts 124°
2026-05-03 23:39 43.89853 15.41759 7151 ft 275 kts 87°
2026-05-03 23:39 43.90099 15.43486 6927 ft 265 kts 67°
2026-05-03 23:39 43.91081 15.45589 6371 ft 261 kts 47°
2026-05-03 23:39 43.92301 15.47401 5954 ft 252 kts 45°
2026-05-03 23:40 43.93507 15.49132 5560 ft 245 kts 45°
2026-05-03 23:40 43.94742 15.50709 5213 ft 241 kts 31°
2026-05-03 23:40 43.96295 15.51514 4828 ft 240 kts
2026-05-03 23:40 43.97916 15.51276 4452 ft 239 kts 339°
2026-05-03 23:41 43.99317 15.50087 4070 ft 236 kts 320°
2026-05-03 23:41 44.00546 15.48628 3700 ft 230 kts 317°
2026-05-03 23:41 44.01701 15.47107 3294 ft 227 kts 315°
2026-05-03 23:41 44.02810 15.45592 2896 ft 219 kts 315°
2026-05-03 23:42 44.03865 15.44145 2518 ft 207 kts 315°
2026-05-03 23:42 44.04865 15.42778 2202 ft 195 kts 314°
2026-05-03 23:42 44.05809 15.41486 1829 ft 186 kts 314°
2026-05-03 23:42 44.06703 15.40265 1522 ft 173 kts 314°
2026-05-03 23:43 44.07523 15.39152 1229 ft 157 kts 314°
2026-05-03 23:43 44.08276 15.38131 958 ft 146 kts 314°
2026-05-03 23:43 44.08980 15.37166 693 ft 138 kts 315°
2026-05-03 23:43 44.09659 15.36252 441 ft 134 kts 315°
2026-05-03 23:44 44.10318 15.35361 295 ft 130 kts 315°
2026-05-03 23:44 44.10874 15.34609 286 ft 89 kts 316°
2026-05-03 23:44 44.11215 15.34150 287 ft 56 kts 316°
2026-05-03 23:44 44.11453 15.33829 286 ft 34 kts 316°
2026-05-03 23:45 44.11597 15.33634 285 ft 19 kts 315°
2026-05-03 23:45 44.11610 15.33533 285 ft 11 kts 236°
2026-05-03 23:45 44.11559 15.33460 286 ft 11 kts 225°
2026-05-03 23:45 44.11506 15.33389 286 ft 9 kts 221°
2026-05-03 23:46 44.11458 15.33417 286 ft 9 kts 135°
2026-05-03 23:46 44.11412 15.33480 288 ft 10 kts 135°
2026-05-03 23:46 44.11361 15.33548 286 ft 11 kts 136°
2026-05-03 23:46 44.11301 15.33630 286 ft 14 kts 135°
2026-05-03 23:47 44.11228 15.33729 286 ft 15 kts 136°
2026-05-03 23:47 44.11151 15.33835 288 ft 16 kts 135°
2026-05-03 23:47 44.11067 15.33947 286 ft 17 kts 136°
2026-05-03 23:47 44.10979 15.34065 286 ft 18 kts 136°
2026-05-03 23:48 44.10887 15.34190 286 ft 19 kts 136°
2026-05-03 23:48 44.10791 15.34322 288 ft 20 kts 136°
2026-05-03 23:48 44.10690 15.34457 288 ft 20 kts 135°
2026-05-03 23:48 44.10586 15.34598 286 ft 21 kts 136°
2026-05-03 23:49 44.10479 15.34744 286 ft 22 kts 135°
2026-05-03 23:49 44.10368 15.34893 283 ft 22 kts 136°
2026-05-03 23:49 44.10255 15.35047 283 ft 23 kts 135°
2026-05-03 23:49 44.10139 15.35206 283 ft 24 kts 135°
2026-05-03 23:50 44.10024 15.35360 283 ft 20 kts 135°
2026-05-03 23:50 44.09931 15.35485 286 ft 12 kts 136°
2026-05-03 23:50 44.09850 15.35531 284 ft 15 kts 174°
2026-05-03 23:50 44.09740 15.35538 282 ft 13 kts 178°
2026-05-03 23:51 44.09648 15.35543 282 ft 12 kts 179°
2026-05-03 23:51 44.09633 15.35489 280 ft 6 kts 269°
2026-05-03 23:51 44.09649 15.35455 279 ft 4 kts 339°
2026-05-03 23:51 44.09672 15.35435 281 ft 3 kts 327°
2026-05-03 23:52 44.09676 15.35432 280 ft 0 kts 327°